K5LRY-13 Weather Reports


Display with metric or nautical units.
time (UTC)temp
F
wind
direction
speed
MPH
gust
MPH
rain 1hr
in
rain 24hr
in
rain mn
in
humidity
%
barometer
mb
20260904114823 49 43 0.0 0.0 0.00 0.00 0.00 84 1030.9
20260904113318 49 43 0.0 0.0 0.00 0.00 0.00 83 1030.8
20260904111831 49 43 0.0 0.0 0.00 0.00 0.00 82 1030.6
20260904110319 50 43 0.0 0.0 0.00 0.00 0.00 81 1030.6
20260904104813 50 43 0.0 0.0 0.00 0.00 0.00 80 1030.6
20260904103328 51 43 0.0 0.0 0.00 0.00 0.00 79 1030.6
20260904101821 51 43 0.0 0.0 0.00 0.00 0.00 78 1030.3
20260904100315 52 43 0.0 0.0 0.00 0.00 0.00 77 1030.3
20260904094826 53 43 0.0 0.0 0.00 0.00 0.00 78 1030.2
20260904093321 53 43 0.0 0.0 0.00 0.00 0.00 80 1030.2
20260904091836 53 43 0.0 0.0 0.00 0.00 0.00 81 1030.2
20260904090330 53 43 0.0 0.0 0.00 0.00 0.00 81 1030.2
20260904084844 53 43 0.0 0.0 0.00 0.00 0.00 81 1030.2
20260904083318 52 43 0.0 0.0 0.00 0.00 0.00 81 1030.2
20260904081811 52 43 0.0 0.0 0.00 0.00 0.00 80 1030.4
20260904080326 52 43 0.0 0.0 0.00 0.00 0.00 79 1030.5
20260904074819 52 42 0.0 1.0 0.00 0.00 0.00 78 1030.5
20260904073334 53 43 0.0 0.0 0.00 0.00 0.00 76 1030.7
20260904071824 54 43 0.0 0.0 0.00 0.00 0.00 74 1030.6
20260904070319 55 43 0.0 1.0 0.00 0.00 0.00 73 1030.7
20260904064834 56 43 0.0 1.0 0.00 0.00 0.00 70 1030.8
20260904063334 57 43 3.0 6.0 0.00 0.00 0.00 68 1030.6
20260904061820 57 20 0.0 10.0 0.00 0.00 0.00 70 1030.5
20260904060314 57 50 0.0 5.0 0.00 0.00 0.00 70 1030.5
20260904054829 57 54 0.0 4.0 0.00 0.00 0.00 70 1030.6
20260904053324 57 40 2.0 10.0 0.00 0.00 0.00 68 1030.8
20260904051817 58 40 0.0 4.0 0.00 0.00 0.00 71 1030.8
20260904050332 57 26 5.0 10.0 0.00 0.00 0.00 68 1031.0
20260904044825 57 25 3.0 8.0 0.00 0.00 0.00 73 1030.9
20260904043313 56 23 1.0 5.0 0.00 0.00 0.00 75 1031.0
20260904041833 56 22 1.0 3.0 0.00 0.00 0.00 80 1031.2
20260904040320 57 22 0.0 0.0 0.00 0.00 0.00 80 1031.3
20260904034815 57 22 0.0 1.0 0.00 0.00 0.00 78 1031.2
20260904033330 58 22 0.0 5.0 0.00 0.00 0.00 77 1031.5
20260904031822 58 23 0.0 6.0 0.00 0.00 0.00 74 1031.5
20260904030317 58 37 3.0 9.0 0.00 0.00 0.00 74 1031.5
20260904024830 58 52 3.0 8.0 0.00 0.00 0.00 78 1031.6
20260904023325 58 41 1.0 4.0 0.00 0.00 0.00 78 1031.6
20260904021822 58 41 1.0 6.0 0.00 0.00 0.00 78 1031.7
20260904020337 59 224 1.0 4.0 0.00 0.00 0.00 75 1031.5
20260904014830 61 223 1.0 3.0 0.00 0.00 0.00 75 1031.7
20260904013318 62 222 0.0 0.0 0.00 0.00 0.00 72 1031.9
20260904011811 63 222 0.0 3.0 0.00 0.00 0.00 65 1032.0
20260904010353 65 222 1.0 7.0 0.00 0.00 0.00 59 1032.1
20260904004818 67 288 1.0 5.0 0.00 0.00 0.00 45 1031.6
20260904003313 68 299 0.0 8.0 0.00 0.00 0.00 40 1031.0
20260904001855 70 270 4.0 7.0 0.00 0.00 0.00 37 1031.1
20260904000321 68 359 1.0 6.0 0.00 0.00 0.00 41 1031.2
20260903234815 69 254 1.0 14.0 0.00 0.00 0.00 41 1031.0
20260903233337 72 272 4.0 16.0 0.00 0.00 0.00 39 1031.1
20260903231850 74 278 1.0 5.0 0.00 0.00 0.00 31 1030.8
20260903230324 75 282 0.0 9.0 0.00 0.00 0.00 30 1030.7
20260903224838 75 179 1.0 5.0 0.00 0.00 0.00 28 1030.9
20260903223312 76 172 2.0 8.0 0.00 0.00 0.00 28 1031.0
20260903221824 77 224 2.0 7.0 0.00 0.00 0.00 27 1031.2
20260903220340 77 218 1.0 15.0 0.00 0.00 0.00 28 1031.2
20260903214813 76 191 6.0 10.0 0.00 0.00 0.00 29 1031.3
20260903213347 76 279 7.0 13.0 0.00 0.00 0.00 27 1031.5
20260903211820 77 184 3.0 11.0 0.00 0.00 0.00 28 1031.6
20260903210314 78 243 3.0 10.0 0.00 0.00 0.00 27 1031.6
20260903204828 77 166 6.0 12.0 0.00 0.00 0.00 27 1032.0
20260903203323 77 197 5.0 13.0 0.00 0.00 0.00 27 1031.9
20260903201815 77 205 6.0 13.0 0.00 0.00 0.00 28 1032.1
20260903200330 76 226 5.0 11.0 0.00 0.00 0.00 28 1032.5
20260903194822 76 243 7.0 13.0 0.00 0.00 0.00 29 1032.5
20260903193337 75 160 5.0 10.0 0.00 0.00 0.00 33 1032.9
20260903191830 74 251 5.0 16.0 0.00 0.00 0.00 34 1032.8
20260903190324 74 247 5.0 15.0 0.00 0.00 0.00 32 1033.0
20260903184838 73 236 3.0 11.0 0.00 0.00 0.00 34 1033.0
20260903183332 73 215 2.0 9.0 0.00 0.00 0.00 38 1033.2
20260903181817 71 185 2.0 11.0 0.00 0.00 0.00 38 1033.4
20260903180312 69 217 3.0 11.0 0.00 0.00 0.00 40 1033.4
20260903174825 69 197 3.0 7.0 0.00 0.00 0.00 43 1033.6
20260903173321 69 201 7.0 11.0 0.00 0.00 0.00 40 1033.4
20260903171814 69 188 3.0 7.0 0.00 0.00 0.00 42 1033.4
20260903170329 67 206 2.0 9.0 0.00 0.00 0.00 41 1033.3
20260903164821 65 158 2.0 9.0 0.00 0.00 0.00 46 1033.3
20260903163336 66 174 3.0 9.0 0.00 0.00 0.00 44 1033.3
20260903161828 66 260 4.0 9.0 0.00 0.00 0.00 45 1033.1
20260903160342 66 213 3.0 5.0 0.00 0.00 0.00 43 1032.9
20260903154815 64 170 4.0 8.0 0.00 0.00 0.00 47 1033.0
20260903153329 63 201 3.0 9.0 0.00 0.00 0.00 48 1032.9
20260903151822 62 164 3.0 11.0 0.00 0.00 0.00 50 1032.7
20260903150316 59 198 3.0 7.0 0.00 0.00 0.00 55 1032.9
20260903144837 56 176 3.0 7.0 0.00 0.00 0.00 69 1032.8
20260903143324 53 256 0.0 0.0 0.00 0.00 0.00 80 1033.1
20260903141839 51 256 0.0 0.0 0.00 0.00 0.00 84 1032.8
20260903140312 49 256 0.0 0.0 0.00 0.00 0.00 87 1032.6
20260903134826 48 256 0.0 0.0 0.00 0.00 0.00 86 1032.4
20260903133321 48 256 0.0 0.0 0.00 0.00 0.00 85 1032.2
20260903131814 48 256 0.0 0.0 0.00 0.00 0.00 85 1032.1
20260903130328 48 256 0.0 0.0 0.00 0.00 0.00 85 1032.1
20260903124850 48 256 0.0 0.0 0.00 0.00 0.00 85 1031.9
20260903123316 48 256 0.0 0.0 0.00 0.00 0.00 86 1032.0
20260903121830 48 256 0.0 0.0 0.00 0.00 0.00 87 1031.8
20260903120323 48 256 0.0 0.0 0.00 0.00 0.00 87 1031.8